Total_Precipitation_Accumulation
0.00 0.03 0.18 0.34 0.55 0.96 1.00 0.57 0.36 0.30 0.30 0.35 0.46 0.46 0.37 0.36 0.49 0.81 0.29 0.06 0.03 0.01 0.01 0.05 0.05 0.04 0.05 0.07 0.09 0.10 0.10 0.12 0.12 0.11 0.09 0.08 0.07 0.06 0.06 0.06 0.07 0.09 0.10 0.11 0.11 0.10 0.11 0.12 0.13
0.00 0.03 0.15 0.34 0.78 1.34 1.06 0.50 0.32 0.32 0.34 0.36 0.41 0.48 0.51 0.35 0.23 0.19 0.12 0.06 0.04 0.02 0.02 0.03 0.06 0.06 0.05 0.06 0.08 0.09 0.10 0.10 0.11 0.09 0.09 0.09 0.08 0.08 0.09 0.08 0.09 0.11 0.13 0.12 0.10 0.09 0.09 0.10 0.13
0.01 0.04 0.12 0.30 0.66 0.95 0.74 0.33 0.28 0.27 0.39 0.44 0.45 0.45 0.49 0.31 0.20 0.12 0.11 0.08 0.05 0.03 0.04 0.07 0.09 0.07 0.06 0.06 0.08 0.09 0.09 0.10 0.10 0.10 0.10 0.10 0.09 0.10 0.11 0.10 0.11 0.12 0.13 0.11 0.10 0.09 0.09 0.10 0.12
0.01 0.05 0.13 0.27 0.35 0.37 0.33 0.23 0.21 0.21 0.31 0.40 0.51 0.52 0.41 0.27 0.24 0.20 0.13 0.11 0.06 0.05 0.06 0.07 0.10 0.08 0.07 0.06 0.07 0.09 0.10 0.09 0.11 0.11 0.11 0.12 0.11 0.11 0.11 0.11 0.11 0.13 0.13 0.12 0.10 0.08 0.08 0.11 0.12
0.01 0.06 0.18 0.26 0.20 0.24 0.24 0.22 0.20 0.18 0.28 0.41 0.46 0.54 0.51 0.35 0.26 0.19 0.13 0.15 0.10 0.07 0.06 0.07 0.09 0.09 0.08 0.07 0.08 0.09 0.09 0.10 0.10 0.11 0.10 0.11 0.12 0.13 0.13 0.12 0.11 0.13 0.14 0.14 0.10 0.08 0.08 0.09 0.11
0.01 0.06 0.14 0.17 0.12 0.12 0.16 0.15 0.17 0.20 0.31 0.51 0.46 0.54 0.67 0.51 0.36 0.27 0.17 0.17 0.15 0.11 0.07 0.08 0.12 0.13 0.11 0.11 0.12 0.11 0.10 0.11 0.11 0.11 0.10 0.10 0.11 0.13 0.14 0.14 0.13 0.14 0.14 0.13 0.10 0.08 0.09 0.10 0.13
0.01 0.03 0.07 0.11 0.08 0.07 0.09 0.12 0.16 0.20 0.36 0.63 0.52 0.66 0.92 0.85 0.51 0.40 0.38 0.29 0.25 0.21 0.19 0.13 0.13 0.15 0.16 0.16 0.16 0.15 0.13 0.13 0.13 0.13 0.12 0.11 0.11 0.13 0.15 0.19 0.20 0.19 0.18 0.17 0.13 0.10 0.09 0.10 0.14
0.00 0.01 0.03 0.05 0.04 0.05 0.05 0.08 0.12 0.26 0.34 0.51 0.45 0.69 1.16 1.03 0.64 0.58 0.64 0.57 0.61 0.54 0.39 0.23 0.19 0.20 0.17 0.15 0.17 0.19 0.17 0.15 0.15 0.14 0.14 0.14 0.15 0.18 0.21 0.23 0.27 0.29 0.28 0.25 0.21 0.16 0.14 0.15 0.18
0.00 0.01 0.03 0.03 0.02 0.03 0.04 0.06 0.09 0.18 0.34 0.56 0.62 0.68 0.91 0.80 0.76 0.81 0.89 0.94 0.93 0.96 0.79 0.40 0.29 0.26 0.24 0.20 0.20 0.24 0.24 0.23 0.21 0.23 0.24 0.27 0.32 0.39 0.50 0.49 0.53 0.52 0.49 0.46 0.42 0.38 0.35 0.31 0.25
0.00 0.01 0.02 0.01 0.01 0.02 0.02 0.05 0.12 0.22 0.50 0.80 0.86 0.87 1.04 0.98 0.79 0.81 0.86 1.00 1.06 1.12 1.01 0.66 0.52 0.38 0.31 0.28 0.36 0.46 0.45 0.46 0.41 0.50 0.54 0.66 0.82 0.77 0.64 0.77 0.96 0.98 0.98 0.91 0.88 0.86 0.70 0.52 0.48
0.00 0.00 0.00 0.00 0.01 0.01 0.02 0.05 0.13 0.31 0.64 1.09 1.39 1.45 1.31 1.17 1.05 0.98 0.93 1.11 1.30 1.29 1.13 0.86 0.76 0.67 0.53 0.59 0.54 0.61 0.70 0.82 0.70 0.68 0.79 1.07 1.04 0.83 0.79 0.90 1.11 1.32 1.32 1.22 1.42 1.48 1.10 1.03 1.24
0.00 0.00 0.00 0.00 0.00 0.01 0.03 0.07 0.15 0.33 0.62 0.91 1.18 1.50 1.64 1.47 1.45 1.38 1.32 1.55 1.74 1.60 1.41 1.18 0.97 0.84 0.79 0.77 0.72 0.73 0.74 0.90 0.88 1.00 1.04 1.20 1.37 1.28 1.24 1.32 1.34 1.46 1.58 1.81 1.86 1.91 1.71 1.65 1.59
0.00 0.00 0.00 0.01 0.01 0.01 0.04 0.13 0.23 0.36 0.49 0.71 0.90 1.07 1.35 1.67 1.94 1.95 1.98 2.37 2.25 2.06 1.92 1.73 1.40 1.29 1.19 1.19 1.17 1.04 1.05 1.14 1.23 1.35 1.35 1.35 1.54 1.53 1.59 1.59 1.63 1.54 1.65 1.86 2.06 2.01 2.09 2.16 1.98
0.00 0.00 0.01 0.01 0.01 0.02 0.06 0.19 0.24 0.37 0.47 0.63 0.87 1.07 1.60 2.15 2.28 2.45 2.72 2.93 2.84 2.62 2.62 2.46 2.14 2.05 1.90 1.69 1.54 1.49 1.41 1.49 1.51 1.56 1.53 1.60 1.78 1.90 1.83 1.67 1.69 1.63 1.68 1.79 1.99 2.07 2.37 2.32 2.23
0.00 0.02 0.03 0.03 0.03 0.04 0.08 0.24 0.30 0.40 0.51 0.73 1.09 1.28 1.71 2.03 2.25 2.30 2.65 2.86 2.84 2.79 2.95 3.00 2.90 2.86 2.68 2.41 2.08 1.88 1.86 1.77 1.85 1.90 1.85 1.93 1.99 2.08 2.00 1.82 1.68 1.74 1.80 1.88 1.92 2.05 2.33 2.27 2.16
0.02 0.05 0.08 0.07 0.07 0.08 0.15 0.47 0.42 0.52 0.74 1.03 1.29 1.43 1.65 1.78 2.10 2.16 2.40 2.75 2.89 2.97 3.14 3.38 3.46 3.43 3.20 2.91 2.61 2.36 2.22 2.13 2.09 2.05 2.00 1.96 2.06 2.08 2.04 1.83 1.65 1.84 1.84 1.89 2.02 2.11 2.24 2.33 2.36
0.04 0.06 0.13 0.17 0.15 0.11 0.25 0.65 0.66 0.76 0.93 1.07 1.18 1.42 1.57 1.54 1.84 2.17 2.40 2.89 3.11 3.25 3.63 4.03 4.15 4.06 3.70 3.25 2.95 2.83 2.67 2.43 2.24 2.18 2.02 1.98 2.03 1.95 2.01 1.78 1.67 1.85 1.99 1.97 1.82 2.13 2.34 2.31 2.33
0.04 0.06 0.10 0.15 0.16 0.16 0.33 0.53 0.66 0.83 0.97 1.09 1.09 1.20 1.25 1.36 1.79 2.24 2.51 2.77 3.28 3.74 4.25 4.34 4.32 4.55 4.30 3.92 3.60 3.27 2.93 2.67 2.42 2.25 2.02 1.81 1.71 1.77 1.97 1.70 1.70 1.93 2.00 1.93 2.00 2.19 2.33 2.20 2.25
0.05 0.09 0.16 0.18 0.16 0.29 0.48 0.63 0.73 0.85 0.90 1.01 1.14 1.12 1.14 1.39 1.76 2.14 2.45 2.77 3.14 3.70 4.08 4.43 4.50 4.41 4.25 3.98 3.53 3.09 2.68 2.51 2.28 2.06 1.86 1.76 1.74 1.85 2.11 1.86 1.89 1.91 1.85 1.82 1.99 2.13 2.04 1.91 2.31
0.07 0.13 0.21 0.25 0.19 0.28 0.48 0.71 0.85 0.87 0.85 0.93 1.10 1.29 1.32 1.52 1.75 2.12 2.50 2.75 2.86 3.10 3.44 3.72 3.82 3.46 3.08 2.91 2.81 2.65 2.56 2.25 2.07 2.05 2.03 1.87 1.83 1.84 1.89 1.93 1.84 1.84 1.81 1.65 1.73 1.95 1.84 1.54 1.95
0.10 0.11 0.12 0.17 0.19 0.31 0.51 0.86 0.97 0.81 0.78 0.86 0.99 1.28 1.48 1.49 1.66 1.94 2.34 2.49 2.54 2.62 2.70 2.75 2.73 2.56 2.44 2.47 2.53 2.58 2.62 2.38 2.29 2.29 2.25 2.01 1.92 1.87 1.92 1.80 1.64 1.61 1.57 1.47 1.46 1.64 1.71 1.51 1.54
0.13 0.08 0.05 0.08 0.21 0.47 0.59 1.02 1.10 0.89 0.86 0.91 0.96 1.06 1.16 1.25 1.30 1.41 1.67 2.00 1.94 1.99 2.17 2.44 2.44 2.35 2.39 2.58 2.57 2.52 2.51 2.52 2.58 2.70 2.64 2.47 2.23 2.05 1.91 1.70 1.50 1.35 1.29 1.27 1.19 1.35 1.46 1.49 1.27
0.07 0.05 0.06 0.09 0.19 0.39 0.49 0.76 1.01 1.03 0.95 0.86 0.85 0.91 0.93 0.98 1.01 1.02 1.17 1.58 1.69 1.62 1.79 2.08 2.38 2.51 2.60 2.74 2.76 2.83 2.78 2.75 2.69 2.69 2.58 2.38 2.23 2.05 1.81 1.64 1.49 1.36 1.25 1.18 1.14 1.20 1.19 1.21 1.11
0.05 0.07 0.15 0.22 0.39 0.75 0.61 0.64 1.03 1.03 0.86 0.75 0.64 0.66 0.69 0.69 0.72 0.78 0.92 1.36 1.70 1.73 1.77 1.88 2.16 2.44 2.60 2.66 2.66 2.64 2.56 2.49 2.36 2.22 1.99 1.80 1.69 1.60 1.50 1.39 1.26 1.19 1.18 1.18 1.13 1.09 1.08 1.08 1.09
0.06 0.16 0.52 0.83 1.10 1.15 0.61 0.63 0.93 0.78 0.72 0.64 0.67 0.68 0.51 0.45 0.53 0.56 0.57 0.69 0.86 1.04 1.18 1.28 1.46 1.72 1.88 2.01 2.01 1.94 1.99 1.91 1.74 1.56 1.42 1.22 1.07 0.98 0.94 0.96 0.98 0.96 0.93 0.93 0.94 0.90 0.90 0.97 1.03
0.07 0.10 0.32 0.53 0.68 0.82 0.75 1.03 1.00 0.67 0.54 0.54 0.56 0.48 0.33 0.29 0.30 0.31 0.29 0.30 0.50 0.72 0.93 1.05 1.12 1.19 1.28 1.34 1.34 1.31 1.36 1.34 1.23 1.22 1.08 0.95 0.84 0.75 0.75 0.77 0.78 0.76 0.77 0.78 0.82 0.78 0.76 0.76 0.81
0.06 0.06 0.09 0.16 0.26 0.53 0.82 1.16 1.06 0.67 0.57 0.52 0.39 0.26 0.19 0.15 0.13 0.14 0.15 0.16 0.27 0.49 0.70 0.78 0.89 0.97 1.07 1.15 1.07 0.99 0.92 0.93 0.91 0.92 0.89 0.82 0.83 0.75 0.78 0.78 0.77 0.77 0.77 0.79 0.77 0.74 0.73 0.82 0.85
0.07 0.07 0.08 0.12 0.26 0.46 0.73 1.07 1.15 0.80 0.72 0.55 0.39 0.29 0.17 0.11 0.08 0.08 0.10 0.11 0.14 0.24 0.42 0.58 0.72 0.85 0.94 1.02 0.94 0.81 0.79 0.76 0.76 0.78 0.80 0.79 0.78 0.80 0.81 0.78 0.79 0.79 0.77 0.73 0.70 0.68 0.70 0.80 0.88
0.10 0.09 0.09 0.10 0.13 0.30 0.58 0.77 0.73 0.61 0.49 0.41 0.38 0.29 0.17 0.14 0.10 0.08 0.13 0.18 0.25 0.34 0.48 0.60 0.70 0.75 0.84 0.86 0.82 0.78 0.74 0.75 0.78 0.76 0.75 0.74 0.76 0.80 0.80 0.78 0.76 0.73 0.72 0.73 0.74 0.72 0.78 0.83 0.87
0.11 0.10 0.12 0.15 0.13 0.16 0.30 0.51 0.38 0.31 0.31 0.31 0.27 0.26 0.17 0.17 0.16 0.17 0.20 0.26 0.33 0.41 0.51 0.62 0.72 0.76 0.85 0.92 1.00 1.05 1.07 1.05 1.00 0.86 0.78 0.78 0.81 0.84 0.86 0.86 0.82 0.75 0.76 0.86 0.90 0.88 0.92 0.96 0.95